Weather Roundup
Issued by NWS

Home | Current Version | Previous Version | Graphics & Text | Print | Product List | Glossary Off
Versions: 1 2 3 4 5 6 7 8 9 10 11 12 13 14 15 16 17 18 19 20 21 22 23 24 25 26 27 28 29 30 31 32 33 34 35 36 37 38 39 40 41 42 43 44 45 46 47 48 49 50

000
NZUS93 KARX 292359
HRRWXR

CURRENT HOURLY OBSERVATIONS ACROSS
MUCH OF THE UPPER MISSISSIPPI VALLEY
NATIONAL WEATHER SERVICE LA CROSSE WI
700 PM CDT MON JUN 29 2015


...SOUTHEAST MINNESOTA...


CITY           SKY/WX    TMP DP  RH WIND       PRES   REMARKS
ROCHESTER      PTSUNNY   69  56  62 NE20G25   29.84R
ROCHESTER/MAYO MOCLDY    69  57  66 NE9G18    29.83R
WINONA         CLOUDY    63  57  82 CALM      29.83F
AUSTIN         CLOUDY    77  64  65 W9G17     29.82R
ALBERT LEA     MOSUNNY   77  64  65 W3        29.83S
DODGE CENTER   PTSUNNY   77  66  69 W7        29.82R
PRESTON        PTSUNNY   67  55  65 NE21G43   29.86R
OWATONNA       MOSUNNY   77  64  65 W9        29.81S
FARIBAULT      MOSUNNY   77  64  65 W8        29.81S
$$

...ELSEWHERE IN MINNESOTA...


CITY           SKY/WX    TMP DP  RH WIND       PRES   REMARKS
MINNEAPOLIS    CLOUDY    81  64  56 W13       29.78R
INTNL FALLS    SUNNY     71  54  54 N8        29.84F
DULUTH         MOSUNNY   74  58  57 N12       29.79R
RED WING       PTSUNNY   66  57  72 NE10      29.86R
REDWOOD FALLS  SUNNY     78  64  61 W9        29.83S
MANKATO        SUNNY     79  63  57 W10       29.81F
WORTHINGTON    SUNNY     75  61  60 W7        29.89F
FAIRMONT       SUNNY     79  61  53 W9        29.84F
$$

...SOUTHWEST WISCONSIN...


CITY           SKY/WX    TMP DP  RH WIND       PRES   REMARKS
LA CROSSE      TSTM      66  62  87 VRB6      29.82R
PRAIRIE DU CHI PTSUNNY   77  61  57 CALM      29.77F
BOSCOBEL       LGT RAIN  73  69  87 CALM      29.78S FOG
LONE ROCK      NOT AVBL
PLATTEVILLE    MOSUNNY   77  61  57 NW8       29.80S
FORT MC COY    TSTM      63  59  89 N8        29.85R
CAMP DOUGLAS   LGT RAIN  63  63 100 W5        29.81F FOG
VIROQUA        MOCLDY    67  63  85 N10G21    29.83R
WIS DELLS      PTSUNNY   74  59  59 N21G28    29.80R
$$

...ELSEWHERE IN WISCONSIN...


CITY           SKY/WX    TMP DP  RH WIND       PRES   REMARKS
MILWAUKEE      MOSUNNY   70  61  73 SE7       29.79F
MADISON        PTSUNNY   75  62  64 CALM      29.78S
GREEN BAY      CLOUDY    69  65  86 SW3       29.76S
EAU CLAIRE     NOT AVBL
BLACK RVR FLS  CLOUDY    62  61  97 N3        29.85R
MEDFORD        CLOUDY    61  58  90 W5        29.78F
WAUSAU         CLOUDY    63  59  87 NW3       29.79R
WIS RAPIDS     LGT RAIN  62  57  83 W12       29.79F
MARSHFIELD     CLOUDY    62  57  83 W6        29.78F HAZE
RICE LAKE      CLOUDY    64  60  87 SW6       29.81R
$$

...NORTHEAST IOWA...


CITY           SKY/WX    TMP DP  RH WIND       PRES   REMARKS
DECORAH          N/A    N/A N/A N/A MISG        N/A
MASON CITY     MOSUNNY   77  65  66 W9        29.85F
CHARLES CITY   PTSUNNY   77  66  69 NW8       29.82F
OELWEIN        MOSUNNY   79  66  65 W8G16     29.81F
$$

...ELSEWHERE IN IOWA...


CITY           SKY/WX    TMP DP  RH WIND       PRES   REMARKS
DES MOINES     CLOUDY    80  63  55 NW8       29.86S
IOWA CITY      MOSUNNY   80  65  59 W9        29.82R
FORT DODGE     SUNNY     77  63  61 W5        29.87F
$$

...NORTHERN ILLINOIS...


CITY           SKY/WX    TMP DP  RH WIND       PRES   REMARKS
CHICAGO-OHARE  PTSUNNY   70  63  78 CALM      29.79R
CHICAGO-MIDWAY PTSUNNY   73  64  73 W7        29.79S
MOLINE         TSTM      76  66  71 CALM      29.80R
ROCKFORD       PTSUNNY   70  64  81 S5        29.81R
PEORIA         MOSUNNY   79  63  57 W7        29.82S
$$

NOTE: "FAIR" INDICATES FEW OR NO CLOUDS BELOW 12,000 FEET WITH NO
SIGNIFICANT WEATHER AND/OR OBSTRUCTIONS TO VISIBILITY. WIND
SPEEDS ARE IN MILES-PER-HOUR.



USA.gov is the U.S. government's official web portal to all federal, state and local government web resources and services.